Theta_e
311 316 317 317 315 314 314 314 314 314 314 313 313 314 314 313 312 312 313 312 311 313 315 315 314 313 313 314 313 312 312 312 311 311 311 311 312 313 313 314 315 315 317 317 317 316 317 316 316 316 315 315 314 314 314 313 314 313 313 312 312 311 311 310 309 308 308 307 307 307 307 306 306 305 304 303 303 303 302 301 301 301 300 299 299 299
312 316 317 316 314 313 314 314 313 313 313 313 313 314 313 313 313 312 313 313 311 312 314 314 314 313 313 313 313 312 312 312 311 311 312 312 312 313 313 313 314 316 316 317 317 316 316 315 315 315 314 314 314 314 314 314 314 313 313 312 312 311 311 310 310 309 309 308 308 308 308 308 308 307 306 305 304 303 302 302 301 300 300 299 299 299
314 315 315 313 312 312 313 313 313 313 313 313 314 314 314 313 313 312 313 314 312 313 316 316 314 313 313 313 312 312 312 312 312 312 313 313 313 313 313 314 314 315 315 316 317 317 316 315 314 314 314 314 314 314 314 314 313 313 312 312 312 311 311 311 310 310 309 309 309 308 308 308 307 307 306 306 304 303 302 302 301 300 300 299 299 299
316 315 313 311 311 312 314 313 314 313 312 314 314 314 314 313 313 314 315 317 314 313 317 316 313 312 312 312 312 311 311 312 313 313 313 313 313 313 314 315 315 314 315 315 317 317 316 315 314 314 314 314 314 314 314 313 313 313 313 312 312 311 311 310 310 310 310 309 307 307 307 306 306 306 305 304 303 303 302 302 301 300 300 299 299 298
315 314 312 311 312 313 314 313 314 314 313 314 315 314 314 314 314 313 314 316 314 313 315 314 312 313 313 313 312 312 311 311 312 311 312 312 312 314 314 314 315 315 315 316 317 317 316 315 315 314 314 314 314 314 314 314 314 313 313 312 312 311 311 310 310 309 309 308 306 306 305 304 304 304 304 303 304 303 302 302 301 301 300 299 298 298
313 312 311 314 316 315 314 314 315 316 314 314 316 315 314 314 314 314 315 314 314 317 317 315 315 316 317 316 313 313 313 312 312 312 311 312 312 313 313 315 316 316 316 317 317 317 316 316 315 314 314 314 314 314 314 314 314 313 313 312 311 311 310 310 309 309 308 308 307 306 306 305 305 305 305 305 305 305 304 303 302 301 300 299 298 298
313 312 312 316 319 318 316 315 316 316 314 315 320 320 315 314 314 315 316 315 318 320 316 315 318 317 317 318 316 315 315 314 314 314 312 311 312 312 312 315 317 317 317 317 317 317 317 316 316 315 315 315 314 314 314 314 313 313 312 312 311 311 310 310 309 308 308 307 307 307 307 307 307 307 308 307 307 306 305 304 303 302 301 299 298 298
314 313 314 315 316 319 318 316 316 315 315 317 322 325 321 317 317 317 317 318 320 319 315 316 319 318 317 317 318 317 317 316 315 316 314 311 311 312 313 315 316 317 317 317 317 317 317 317 317 316 316 315 315 315 314 314 313 313 312 312 311 311 310 310 309 308 308 308 308 307 307 307 307 307 308 307 306 306 305 303 302 302 301 300 299 298
315 315 316 315 315 317 316 315 316 316 316 318 320 322 322 320 320 319 318 320 320 317 316 317 318 319 317 316 318 316 315 317 316 316 316 313 313 312 313 315 316 317 317 317 317 317 318 317 317 316 316 315 314 314 314 314 314 313 312 311 310 310 310 309 309 308 308 308 308 307 307 307 307 306 306 305 305 305 304 303 302 301 301 300 299 298
314 315 313 314 316 315 314 317 320 319 317 316 317 320 322 324 324 321 318 319 320 318 318 319 318 318 317 318 318 314 315 317 315 315 315 313 313 314 314 315 316 317 317 317 317 317 317 317 317 316 315 315 314 314 314 313 313 312 312 311 310 310 309 309 309 308 308 308 307 307 307 307 307 306 305 304 304 303 303 303 302 301 301 300 299 298
311 310 310 313 314 312 315 316 313 315 314 312 317 322 324 325 326 326 324 320 318 318 320 322 320 318 317 319 318 317 318 318 315 314 314 313 312 314 316 316 316 317 317 318 317 317 318 317 316 315 314 314 314 314 314 313 313 313 312 311 310 310 309 309 308 308 308 307 307 307 307 307 307 306 305 304 304 303 303 302 302 302 301 300 299 299
310 310 313 315 311 311 316 314 309 310 311 313 321 323 321 324 324 325 325 321 318 320 321 321 319 317 317 318 317 318 318 317 316 315 318 318 314 313 317 317 317 318 318 317 317 316 317 317 316 315 314 314 314 314 314 314 313 313 312 311 310 310 309 309 308 308 308 307 307 307 307 307 307 306 306 306 305 305 304 303 302 301 300 300 299 298
315 313 314 314 311 312 317 317 315 315 313 316 322 320 318 322 320 321 324 321 319 320 319 317 316 315 315 316 317 316 316 317 316 314 316 318 314 313 317 318 316 318 317 317 317 316 317 317 316 316 315 314 314 314 314 313 313 313 312 311 310 310 309 309 309 308 308 308 308 307 307 307 307 306 306 306 305 305 304 304 303 302 301 300 300 299
319 316 312 312 312 313 315 317 317 318 316 316 318 319 319 320 318 320 325 323 319 320 318 315 314 315 316 318 318 316 314 314 313 311 312 314 313 314 317 317 316 317 317 317 317 316 315 316 316 315 315 314 314 314 314 314 313 313 312 311 310 310 309 309 310 309 309 309 309 308 307 307 306 306 306 306 306 305 305 304 303 303 302 301 301 300
319 317 315 315 316 315 314 314 316 320 318 314 317 320 318 321 324 323 325 323 319 322 320 314 315 319 319 318 319 318 314 312 311 311 312 311 312 314 315 315 316 316 317 317 316 314 314 315 315 315 315 314 314 314 314 313 313 312 312 312 311 310 310 310 311 310 310 310 310 308 307 306 306 306 306 306 306 305 305 304 303 303 302 301 301 300
316 317 319 314 313 314 314 314 315 319 318 314 318 321 315 320 325 319 320 322 318 320 320 315 318 321 317 314 316 319 316 312 311 310 310 311 313 314 313 315 316 316 317 316 315 314 314 314 315 314 314 314 314 314 314 313 313 313 312 312 312 312 310 310 311 311 311 311 310 309 308 307 306 306 305 305 305 305 306 306 304 303 302 301 300 300
315 319 321 312 311 313 312 312 313 315 317 315 316 317 315 318 320 316 320 322 316 317 318 316 319 319 317 316 316 317 316 314 316 315 312 311 312 312 311 312 315 316 316 315 315 316 315 314 314 314 315 315 314 314 314 314 313 313 312 312 312 312 311 310 311 312 312 311 310 309 309 308 307 306 306 306 306 305 305 305 305 304 302 301 300 299
316 317 319 316 315 312 306 307 312 311 312 316 317 316 314 317 319 318 321 322 317 317 318 317 318 317 317 318 317 318 317 317 321 320 313 310 309 309 310 311 313 314 314 314 315 315 314 313 314 315 315 315 314 314 314 314 314 312 312 312 313 313 312 312 312 311 311 311 311 310 309 308 308 307 307 306 305 304 303 304 305 305 304 303 301 300
316 315 318 318 316 312 307 310 315 310 308 312 315 315 316 318 319 318 319 319 317 318 318 317 317 316 316 317 315 318 319 318 319 317 314 314 310 308 310 312 313 313 314 315 315 315 314 313 314 314 315 315 315 314 314 314 313 312 312 312 313 313 313 312 311 311 311 311 311 311 310 309 309 308 307 306 305 303 303 303 304 304 305 304 302 301
316 315 317 317 314 312 311 313 317 316 312 310 311 313 315 315 318 318 318 319 318 318 318 319 318 317 317 319 318 319 320 317 315 314 315 315 310 309 311 313 313 314 315 315 314 315 315 314 314 314 315 316 315 314 314 313 313 312 312 312 312 313 313 312 312 311 311 311 311 311 310 309 309 308 308 307 305 304 304 303 303 303 304 304 303 302
315 316 315 316 314 313 313 315 318 319 316 313 313 314 313 313 317 317 316 317 317 316 318 319 318 318 318 320 318 317 317 314 311 313 315 313 311 312 313 313 314 315 315 315 315 315 315 314 314 314 315 316 315 315 314 313 313 312 312 312 312 313 313 313 312 312 311 311 311 311 310 310 309 309 308 307 306 305 304 303 302 302 302 302 302 302
317 317 316 316 316 314 315 317 317 317 317 315 314 314 313 313 316 316 315 317 316 315 317 317 317 319 318 317 315 314 315 313 312 314 315 312 311 312 313 313 314 314 314 314 314 315 315 314 314 313 314 315 315 314 314 313 313 312 312 312 312 312 313 312 312 312 312 312 311 311 311 310 309 308 307 307 306 305 304 303 302 301 301 302 302 301
317 317 316 316 317 316 316 316 316 316 316 313 313 314 315 314 314 315 316 317 316 316 316 316 316 317 316 316 315 314 314 313 312 312 312 310 310 311 313 313 313 314 314 314 314 314 313 313 312 311 313 315 315 314 313 312 312 312 312 312 312 312 312 312 312 312 312 311 311 311 310 310 309 308 307 307 306 306 305 304 303 300 299 301 301 300
314 316 316 316 317 317 317 316 315 314 312 311 312 313 313 314 313 314 315 315 317 316 316 317 316 316 319 322 317 314 314 312 311 311 310 309 309 311 311 312 312 313 313 313 314 313 313 312 311 311 312 314 314 313 313 312 312 312 312 312 312 312 312 312 312 311 311 311 310 310 309 309 308 308 307 307 307 307 306 305 303 302 300 299 299 299
315 317 319 317 318 318 318 318 317 314 312 312 314 313 312 313 313 313 314 314 315 315 315 317 316 316 319 322 317 313 313 313 312 312 311 310 310 311 310 311 312 311 311 312 313 313 312 311 311 311 312 313 312 312 312 312 312 312 312 312 312 312 312 311 311 311 310 310 310 309 309 308 308 308 308 307 307 307 306 305 304 303 301 299 298 298
316 319 319 318 318 319 318 318 319 319 316 313 315 315 313 313 314 313 314 314 314 315 315 316 316 315 315 315 314 313 313 312 312 312 312 312 312 311 311 311 311 311 312 312 312 312 312 311 311 311 311 312 312 312 312 312 312 312 312 312 312 312 312 311 311 311 310 310 309 308 308 308 307 308 308 308 307 306 305 304 303 303 301 300 298 297
315 317 318 317 318 319 318 317 318 320 318 315 315 315 313 314 314 313 314 314 315 315 315 315 315 315 315 314 314 313 313 313 313 313 313 313 312 312 312 311 311 312 312 312 311 312 312 312 312 311 311 311 311 312 312 311 312 312 312 312 312 312 311 311 311 310 310 309 308 308 308 308 308 308 308 308 307 306 305 304 303 303 302 300 298 297
313 314 316 316 316 317 317 316 316 317 316 315 316 315 314 314 314 314 314 314 314 315 315 315 316 315 315 315 314 313 313 313 313 313 313 312 312 313 312 312 311 311 311 311 311 311 311 311 312 312 312 312 312 312 312 312 313 313 313 312 312 312 311 311 310 310 310 309 308 307 308 308 308 308 307 307 306 304 303 303 303 302 301 300 298 297
312 313 314 315 315 315 315 315 316 316 316 315 316 315 315 315 314 314 314 313 313 315 315 315 316 315 314 314 314 313 313 313 313 312 312 312 312 312 312 312 311 311 310 310 310 311 311 312 312 312 312 312 313 312 312 313 314 314 314 313 312 312 311 311 311 310 310 309 308 308 308 308 308 307 306 305 305 304 303 303 303 302 300 299 298 297
311 313 313 313 314 314 314 314 314 314 314 314 314 314 314 314 314 314 313 313 314 314 314 314 315 314 313 313 313 312 312 312 312 312 312 312 312 312 312 312 311 310 310 309 310 310 310 310 311 311 311 312 312 312 312 312 312 313 314 313 311 311 311 311 311 310 310 309 309 308 308 308 307 306 305 305 304 304 303 302 302 301 300 299 298 296
310 312 313 313 313 313 313 313 313 313 313 313 313 313 313 313 314 314 313 313 314 314 314 314 314 313 313 312 312 311 311 312 312 311 311 311 312 311 311 309 307 306 305 305 305 306 306 307 307 308 309 310 310 311 311 311 311 312 312 311 311 311 311 310 310 310 310 309 309 309 308 307 306 306 305 304 304 303 302 301 301 300 299 298 297 296
308 310 311 312 313 313 313 313 312 312 312 312 312 312 313 313 313 313 313 313 314 314 314 314 314 314 313 312 312 312 311 312 311 311 311 311 310 308 306 304 302 301 301 301 301 301 302 302 303 304 306 307 308 309 310 310 310 311 311 311 311 311 311 310 310 310 310 310 309 308 307 307 306 305 304 303 303 302 301 301 300 299 298 297 297 296
307 309 310 310 312 313 313 313 313 312 313 313 313 312 312 312 313 313 313 313 312 313 314 314 314 311 308 308 308 307 308 308 309 309 308 305 303 302 301 300 299 299 299 298 298 298 298 299 299 301 302 305 306 307 308 309 309 310 310 311 311 311 310 310 310 309 309 309 309 308 307 306 305 304 304 303 303 302 301 300 300 299 299 298 297 296
307 307 308 309 310 311 311 312 311 311 313 314 314 314 312 312 313 312 313 313 313 313 312 310 307 304 301 300 300 300 300 301 303 304 301 298 297 298 298 297 297 297 296 296 296 296 296 297 297 298 299 302 304 305 306 306 307 308 309 309 309 310 309 309 309 309 309 309 308 307 306 305 304 304 303 303 302 301 301 300 300 299 298 297 296 295
306 306 306 307 308 309 309 310 310 311 311 312 315 315 312 312 312 312 313 312 310 307 304 301 301 299 298 297 297 297 297 297 299 300 298 296 295 295 295 295 295 295 295 295 295 295 295 296 297 297 298 300 302 304 305 305 305 306 307 307 307 307 308 309 309 309 308 308 306 306 305 304 304 303 303 302 302 301 300 300 299 298 297 296 296 295
305 305 306 306 307 308 308 308 309 310 309 312 314 311 307 307 307 309 312 306 299 299 298 297 298 298 296 296 296 295 295 295 298 300 297 294 294 293 294 294 294 294 295 295 295 295 295 296 297 297 298 299 301 303 303 304 305 305 306 306 306 306 307 307 307 307 307 306 305 305 304 304 304 303 303 302 301 300 300 299 299 298 297 296 295 294
305 305 306 307 308 309 309 309 309 310 310 311 308 302 299 300 300 303 307 301 293 293 297 297 298 297 295 295 295 294 294 294 296 298 296 293 293 293 293 294 294 295 295 295 295 296 296 297 298 299 299 299 301 302 302 302 304 305 305 305 305 305 305 305 306 306 306 305 305 305 305 305 304 303 302 302 301 301 300 299 298 297 296 295 295 294
304 306 306 307 308 308 308 307 306 308 309 304 299 297 297 298 297 298 303 301 293 292 295 297 297 295 294 294 294 293 294 294 294 294 293 292 293 293 294 294 295 295 295 295 296 296 296 297 298 298 299 299 300 301 301 301 302 303 304 305 304 304 303 303 304 304 304 304 304 304 304 304 303 302 301 301 301 301 300 299 298 297 296 296 295 295
302 304 305 305 306 306 305 304 303 305 305 298 295 296 297 296 296 298 304 303 294 292 295 297 296 294 294 294 293 293 294 293 293 293 293 293 293 293 294 294 294 295 295 294 295 295 295 295 296 296 298 298 299 300 300 300 302 302 302 303 304 304 304 303 302 301 301 301 301 300 301 301 300 300 300 300 301 300 299 298 297 296 296 295 295 294
300 302 302 301 302 302 303 303 303 304 301 295 295 297 295 295 298 303 306 302 294 292 295 296 295 295 294 293 293 293 293 293 293 293 293 293 293 294 294 294 294 294 293 293 293 293 293 294 294 295 295 296 297 298 299 299 300 301 302 302 302 303 303 303 302 301 300 300 299 299 299 299 298 298 298 298 298 298 297 296 296 295 295 294 293 293
298 299 299 299 298 299 299 299 300 302 298 294 294 296 294 295 298 300 300 297 293 293 295 295 294 295 294 293 293 293 293 293 292 292 293 293 293 293 293 293 293 292 292 292 291 292 292 292 293 294 294 294 295 296 297 298 299 300 301 301 301 301 301 301 302 302 301 300 299 299 298 298 297 297 297 297 296 295 295 295 294 294 294 293 293 292
296 297 297 298 297 297 297 296 296 299 298 294 293 294 294 295 295 293 294 294 294 294 295 294 294 294 293 293 293 292 292 293 292 293 293 293 292 292 292 292 291 291 291 291 291 291 291 291 291 292 293 293 293 294 295 297 298 299 300 300 300 300 300 300 300 301 301 301 301 300 299 297 297 296 296 295 295 295 294 294 294 293 292 292 291 291
295 294 294 295 295 294 295 295 295 297 297 294 292 293 294 294 292 291 292 293 294 294 294 293 293 293 293 293 292 292 293 293 292 292 292 291 291 290 290 290 290 290 290 290 290 290 290 290 290 291 291 291 292 292 293 294 295 297 299 299 299 300 300 300 300 300 301 301 302 302 300 298 297 296 295 295 295 294 293 293 293 292 291 290 290 290
294 293 292 293 295 294 294 295 296 295 295 294 293 292 293 293 292 291 292 293 294 294 293 293 293 293 293 292 292 292 292 291 291 290 289 289 289 289 289 289 289 289 289 289 289 289 289 289 289 289 289 289 290 290 291 292 292 294 296 297 298 299 299 300 300 300 300 300 301 301 301 299 298 297 296 295 295 294 293 293 292 291 290 290 289 288
294 294 293 293 295 294 293 293 294 293 293 293 292 292 292 291 291 291 291 293 294 293 292 292 292 292 291 291 291 291 290 289 289 288 288 288 288 288 288 288 288 288 288 288 288 288 288 288 288 288 288 288 288 289 290 290 291 291 293 294 296 297 298 299 299 299 300 300 300 300 301 300 299 299 298 296 294 293 293 292 291 290 289 288 288 288
293 293 292 293 293 292 292 292 292 292 292 292 291 291 291 290 290 291 291 292 292 291 291 291 291 291 290 290 289 288 288 287 287 287 287 287 287 287 287 287 287 287 287 287 287 287 287 287 287 287 287 287 287 287 288 289 289 290 291 292 293 294 296 297 297 298 299 300 300 300 300 300 300 299 298 298 296 294 292 291 290 290 289 288 288 287
292 291 291 292 292 291 291 291 291 291 290 290 290 290 290 290 290 290 290 290 290 290 290 290 290 290 289 289 288 287 286 286 286 286 286 286 286 286 286 286 286 286 286 286 286 286 286 286 286 286 286 286 286 286 286 287 288 288 290 290 291 292 293 294 295 296 296 297 299 299 299 300 300 299 298 298 298 296 294 291 290 289 288 288 288 287
292 292 292 292 291 291 291 291 291 290 290 290 290 290 289 290 290 289 289 289 289 290 290 289 289 289 288 288 287 286 285 286 285 285 285 285 285 285 285 285 285 285 285 285 285 285 285 285 284 285 285 285 286 286 286 286 287 287 288 289 290 290 291 292 293 294 294 295 296 298 298 298 299 299 298 298 298 298 297 295 292 291 291 290 290 289
291 291 292 292 291 291 291 290 290 290 289 290 290 290 290 290 289 289 289 289 289 289 288 288 288 287 287 286 286 285 284 285 285 284 283 283 284 284 284 284 284 284 284 284 284 284 284 284 284 284 284 284 285 285 285 285 286 286 287 287 288 289 289 290 291 292 293 294 295 296 297 297 297 297 297 297 296 296 296 295 294 293 293 292 290 289
290 290 291 291 290 290 290 290 290 290 289 289 289 289 290 289 289 289 288 288 287 287 286 285 285 286 285 285 284 283 283 283 283 283 282 282 283 283 283 283 283 283 283 283 283 284 284 284 283 283 283 283 284 284 284 285 285 285 286 286 287 287 288 288 289 291 292 293 294 295 295 296 296 296 295 295 294 294 293 292 290 290 290 289 289 287
290 290 291 290 290 290 290 290 289 289 289 289 290 290 289 289 288 288 287 286 285 284 283 283 283 283 283 284 283 282 281 281 282 282 281 281 282 281 281 281 281 281 282 282 282 283 283 283 282 282 282 283 284 283 283 283 284 284 285 285 286 286 286 287 288 289 290 291 292 293 294 295 295 294 293 293 292 291 290 290 289 288 287 285 285 285
Wind_Speed
11 5 3 8 11 12 9 12 16 14 10 7 5 6 8 9 9 11 15 12 5 6 8 12 17 16 17 17 18 27 29 25 26 28 29 31 33 38 41 44 46 47 51 53 52 50 48 48 46 44 42 39 39 39 40 41 42 44 44 44 44 44 45 45 45 44 43 42 42 42 43 45 45 45 45 44 43 42 40 39 38 37 36 35 34 33
8 6 8 15 16 12 8 11 13 10 8 8 6 8 9 8 13 13 13 15 6 5 8 11 16 17 16 16 16 20 18 18 23 24 29 33 32 37 40 44 48 48 52 52 52 52 50 48 45 43 41 39 39 39 39 40 41 44 45 46 45 45 45 46 46 45 44 43 42 41 41 43 45 46 46 45 44 43 41 40 40 39 38 36 36 35
4 6 15 20 13 6 5 5 7 8 8 7 5 6 7 7 12 11 10 15 5 4 7 10 13 16 14 15 15 16 16 23 31 30 34 35 30 35 40 43 47 47 48 51 51 52 50 48 44 41 40 40 39 38 38 39 41 44 46 46 46 46 46 46 46 45 44 42 41 41 40 41 43 44 45 45 44 43 43 42 42 41 39 38 38 36
5 8 18 18 7 5 8 7 5 6 5 6 6 6 8 8 9 8 6 9 4 3 7 9 12 12 11 13 11 18 27 29 35 37 39 39 34 38 43 43 46 46 47 50 51 50 49 47 44 42 42 40 38 37 38 39 42 45 47 47 47 47 46 45 45 44 43 42 42 42 41 41 41 42 43 44 45 45 45 44 43 42 41 40 39 38
9 10 12 10 7 9 11 9 6 7 7 8 8 8 11 12 11 11 7 7 5 4 6 6 12 10 9 14 11 16 25 25 30 33 34 39 41 42 46 46 48 50 50 51 52 50 48 47 45 42 40 39 37 38 38 39 42 44 45 47 47 46 45 45 44 44 44 44 44 44 43 43 43 43 44 46 48 48 48 47 45 44 42 41 41 39
11 13 9 7 8 10 9 8 8 9 9 6 8 13 18 15 12 13 10 8 5 5 4 3 9 9 7 13 12 10 13 15 19 21 24 36 41 39 43 48 50 51 51 51 51 50 48 47 45 41 39 39 39 39 38 38 40 42 44 45 45 45 44 44 44 44 45 46 46 45 45 46 46 46 47 48 49 50 49 48 47 45 44 43 42 40
7 13 11 9 9 9 8 7 9 11 9 7 6 13 16 12 9 11 8 5 2 4 4 3 1 10 6 7 11 10 10 12 13 12 18 30 35 34 38 45 47 47 48 48 47 46 45 44 43 42 41 40 40 39 36 37 39 41 43 44 44 43 43 43 44 44 45 46 46 46 46 45 45 46 46 47 48 48 47 47 47 45 44 43 42 42
5 9 9 9 9 7 6 9 11 11 7 7 5 8 9 8 8 7 5 5 4 3 4 2 5 8 13 7 11 13 11 11 12 13 16 23 29 32 35 41 44 44 45 45 45 44 42 41 40 39 38 37 37 36 36 37 38 40 43 43 43 42 42 42 43 44 45 46 46 46 46 46 46 45 45 45 46 46 46 46 46 45 45 44 43 42
4 7 9 10 7 6 9 11 8 12 7 7 3 6 6 5 5 4 4 3 2 4 4 4 5 3 15 6 7 9 9 9 13 16 16 18 24 30 34 40 42 42 42 42 44 43 41 41 39 36 34 32 32 33 34 35 36 39 41 42 41 41 42 42 42 43 44 45 46 46 47 47 46 46 47 46 46 45 46 46 46 46 45 44 44 43
1 2 6 9 7 8 10 7 6 12 8 4 6 6 5 3 3 4 2 1 3 5 5 6 5 3 13 7 5 4 5 8 12 13 14 15 22 30 33 36 38 36 37 39 41 41 40 40 38 33 31 30 30 31 31 33 35 38 40 40 40 41 41 42 42 43 44 45 46 46 47 46 46 47 48 48 47 47 47 47 47 46 46 45 45 44
4 1 2 5 7 6 5 2 3 7 5 4 7 5 6 5 5 4 2 4 2 8 7 10 11 7 8 6 4 4 5 7 8 7 9 13 20 30 32 33 33 30 32 37 38 38 38 39 37 33 29 28 29 29 30 32 35 37 38 39 39 40 41 41 42 43 44 45 46 46 46 46 46 47 48 48 48 48 48 49 48 47 47 46 45 45
4 2 1 5 7 5 5 4 1 2 4 5 4 3 3 4 4 4 4 4 1 9 6 11 12 10 10 6 2 5 5 5 7 7 10 11 17 26 28 28 29 28 32 37 36 34 34 36 36 34 31 29 28 28 31 33 35 37 37 38 39 40 40 41 42 42 44 46 46 46 46 45 46 46 46 47 47 47 48 49 49 48 48 47 46 46
4 7 6 2 5 7 5 3 2 5 4 5 4 4 1 4 3 3 4 1 4 9 5 7 7 7 12 8 4 10 11 8 9 10 13 12 17 26 27 25 27 31 35 35 35 34 33 32 33 33 32 30 29 29 32 34 35 36 36 38 39 40 40 40 41 42 44 45 46 47 47 46 46 46 44 44 45 46 46 47 48 48 48 48 48 47
4 6 4 3 4 9 10 5 3 2 3 6 6 6 5 3 2 3 4 3 6 7 4 4 5 5 9 6 9 15 14 10 9 13 21 21 23 28 28 27 30 34 35 35 36 36 34 30 30 31 31 30 30 29 32 34 35 35 37 38 40 40 40 40 41 42 44 45 45 47 47 47 46 45 44 42 42 43 43 45 47 47 47 48 47 46
4 9 5 7 4 9 13 12 10 5 4 7 5 6 6 6 5 4 5 7 8 6 4 2 4 5 5 2 7 11 8 9 9 13 19 20 24 29 30 31 34 36 35 36 36 34 30 27 28 29 30 30 29 29 32 33 34 36 37 38 40 41 41 41 41 43 44 44 45 47 48 48 47 46 45 43 41 41 41 43 45 45 46 46 45 44
5 10 7 6 3 11 14 14 11 7 1 4 4 4 5 6 6 5 7 7 4 3 4 3 4 6 4 5 8 7 8 10 11 13 15 19 26 30 32 36 40 39 38 37 35 33 30 27 27 28 28 29 29 29 31 33 34 36 36 37 39 40 42 43 43 43 43 44 45 46 47 47 48 48 47 45 44 41 39 40 42 43 43 43 43 42
5 7 3 2 1 6 7 6 7 6 3 2 4 4 5 4 6 6 7 3 0 4 7 6 8 6 5 10 8 3 6 8 8 11 11 16 23 24 27 34 38 40 40 36 34 36 36 30 27 28 28 28 29 29 29 30 32 33 35 37 38 40 43 44 44 44 43 44 46 47 47 47 48 48 47 45 45 44 41 40 40 41 42 42 42 41
7 7 4 5 5 4 3 4 2 1 3 5 4 6 2 3 2 3 2 2 2 8 7 8 16 11 5 8 4 5 5 7 7 7 5 9 14 16 22 29 33 37 39 37 37 39 39 33 29 29 29 28 28 28 27 28 30 32 34 36 37 40 41 41 42 44 45 46 47 48 48 48 47 47 47 46 46 47 46 43 40 39 40 40 40 41
5 7 6 2 2 2 5 3 3 4 1 4 3 2 3 1 3 2 3 3 6 10 6 8 16 13 8 9 5 5 8 8 8 6 5 6 8 11 18 25 29 34 37 38 40 42 42 39 34 31 30 29 29 28 28 28 30 33 35 36 37 38 39 40 43 45 46 48 49 49 48 48 48 48 48 48 49 49 49 46 43 41 39 38 39 40
1 4 5 1 1 1 3 1 4 3 2 1 2 3 1 3 4 3 3 2 6 10 8 8 11 9 8 7 5 7 8 6 5 5 6 7 10 16 21 26 32 36 39 40 39 42 45 45 40 34 33 32 31 30 29 29 29 31 34 36 37 38 41 44 45 46 47 49 49 50 50 50 49 49 49 50 50 51 49 48 47 44 41 40 39 39
1 3 7 2 2 1 1 3 6 5 3 1 3 4 3 2 1 1 3 1 3 8 8 8 9 8 6 4 6 7 7 7 4 6 8 9 17 26 30 31 33 36 39 38 36 42 46 49 48 40 36 36 34 31 30 29 28 29 32 35 35 37 41 45 48 48 48 48 50 52 52 52 51 51 52 52 52 52 51 50 50 48 45 43 42 41
1 4 5 2 3 5 5 5 6 6 5 5 5 6 7 7 5 5 7 4 3 5 7 8 9 6 3 5 7 7 6 8 6 7 9 12 20 28 27 27 28 30 34 33 35 44 47 51 53 45 39 41 37 33 32 29 28 28 29 31 33 38 42 45 48 50 49 49 50 52 53 53 53 54 54 53 54 54 53 52 52 51 49 47 44 44
3 2 2 4 7 8 10 7 5 6 5 4 4 5 6 6 6 7 10 7 4 4 5 7 10 5 2 9 16 14 12 14 12 10 11 15 22 25 25 29 31 33 37 37 40 46 46 46 47 40 39 42 37 33 33 29 27 27 26 28 32 37 43 45 46 48 51 51 51 52 53 55 56 56 56 56 55 55 54 53 53 54 53 50 47 46
3 3 3 6 5 6 10 11 7 4 4 3 5 5 6 6 7 9 7 4 5 6 5 8 10 6 3 8 14 16 19 20 19 18 17 17 24 29 30 34 39 40 41 40 43 46 41 35 33 30 32 34 31 32 33 29 26 25 26 29 33 38 44 47 46 46 50 54 54 53 54 57 58 58 58 58 57 56 55 55 55 55 55 53 51 48
4 2 3 5 4 4 5 6 6 4 4 5 4 6 8 9 10 9 4 1 5 9 11 12 11 7 6 7 10 16 22 23 23 28 28 23 25 31 32 35 40 41 39 40 43 41 34 27 24 24 25 26 27 29 30 29 28 28 31 35 38 41 46 48 48 46 48 53 56 56 55 56 58 59 59 59 58 57 57 57 57 56 55 55 53 51
5 4 4 5 7 7 7 6 6 4 5 5 4 7 12 14 14 12 7 7 9 11 13 14 11 10 10 10 12 17 22 23 25 33 37 30 27 31 33 34 37 37 38 39 37 35 35 35 33 31 28 28 28 28 30 30 30 34 38 40 43 45 48 49 49 47 47 51 57 58 56 54 56 56 56 58 60 59 59 59 59 57 56 56 54 53
2 5 10 12 13 13 13 14 11 7 8 8 9 13 15 16 17 14 10 12 12 12 15 14 13 15 14 13 16 19 20 22 25 29 33 32 30 31 33 33 33 34 36 36 33 33 36 39 41 39 35 34 32 30 31 33 36 41 44 45 47 49 50 49 47 47 49 52 56 57 56 54 53 51 50 54 59 61 60 60 59 57 57 56 56 55
1 5 13 18 20 19 18 20 18 14 14 15 15 17 17 16 18 16 16 17 15 14 16 13 15 19 17 15 19 22 22 23 23 23 27 32 36 36 34 33 31 30 30 28 28 30 31 33 37 40 42 44 43 41 40 40 42 44 46 47 49 51 52 48 46 48 51 53 56 56 56 53 50 48 48 51 56 60 61 59 58 58 57 56 56 56
3 7 12 16 19 20 19 20 19 18 18 17 17 18 19 20 20 20 22 22 17 17 17 15 17 21 18 15 18 21 22 22 22 27 32 36 40 40 40 40 35 29 25 23 25 29 32 35 39 42 47 50 50 50 49 46 42 41 43 48 51 52 51 48 47 49 52 54 56 55 54 51 49 49 49 50 53 57 59 59 58 58 57 57 56 56
3 7 11 15 19 19 19 20 20 20 20 19 20 21 21 22 23 24 24 23 21 22 22 20 23 23 19 17 19 22 25 26 28 32 34 35 40 44 45 42 34 28 24 23 27 32 34 39 43 45 47 48 48 48 48 46 43 40 42 47 50 51 50 48 49 51 53 54 54 53 51 51 51 50 50 50 52 54 56 58 58 57 57 57 56 56
4 7 10 13 14 14 16 19 19 20 21 22 24 24 22 23 25 24 23 21 21 24 26 26 26 22 17 19 22 24 29 30 27 26 29 35 41 42 36 29 26 28 28 28 30 31 31 32 36 40 44 46 46 46 47 47 45 44 46 48 49 49 49 50 50 51 52 53 52 51 51 53 52 51 50 51 51 52 54 56 57 56 56 56 56 55
3 5 6 8 9 9 12 16 20 21 22 24 24 24 25 25 24 22 21 21 22 24 25 25 22 16 15 17 18 20 23 22 19 22 28 31 29 23 22 24 27 29 31 33 34 35 35 34 32 32 36 40 44 46 47 47 44 45 48 49 48 48 50 51 51 51 51 50 50 51 52 53 53 51 51 51 51 51 53 54 55 55 55 55 56 55
3 4 4 6 8 7 7 11 15 15 15 15 16 21 27 27 24 22 21 22 23 22 20 18 13 9 9 9 9 12 13 13 15 16 14 16 22 26 25 24 27 29 31 34 37 38 38 38 36 34 32 31 35 39 42 43 43 45 48 48 48 49 50 50 50 50 50 49 50 51 51 52 52 52 51 50 50 50 51 52 54 54 54 55 55 55
7 8 7 6 6 7 8 10 11 11 11 8 6 11 19 25 26 24 22 23 23 18 11 7 5 9 12 12 11 11 11 16 21 12 19 26 28 29 29 29 31 33 34 36 38 40 40 40 39 37 35 33 31 31 34 38 41 44 47 49 51 52 50 48 48 48 48 48 49 49 50 51 51 51 50 49 49 50 51 52 53 53 54 54 55 56
11 11 9 7 7 9 10 10 11 12 9 5 2 5 11 18 21 23 23 20 14 8 9 12 11 12 12 10 12 13 16 28 27 9 23 31 32 31 33 34 35 37 37 38 39 40 41 40 41 40 38 37 36 33 31 30 33 36 39 43 46 48 47 47 48 48 48 48 48 47 47 49 49 49 49 48 49 50 50 51 52 52 53 54 54 55
12 11 8 6 7 7 7 9 12 10 6 3 1 4 8 7 9 14 14 7 11 12 12 12 10 9 11 12 17 19 25 33 20 5 20 35 36 33 33 34 36 37 37 38 38 38 39 39 40 41 40 38 37 37 36 33 30 28 29 32 35 38 41 43 46 47 48 47 46 45 44 45 47 48 48 48 49 50 50 50 51 52 52 53 53 53
11 9 7 6 7 7 9 12 13 12 10 4 2 5 8 6 7 9 6 3 11 11 10 10 8 10 11 12 18 24 27 25 11 6 25 40 38 36 35 33 34 36 35 37 37 36 38 38 38 38 38 37 37 38 39 38 35 30 25 23 23 25 29 34 38 41 43 43 42 41 41 43 45 47 47 48 48 49 49 49 50 51 52 52 52 52
7 8 8 7 6 6 10 10 9 12 9 2 5 7 8 10 11 9 6 2 8 12 13 10 8 12 12 10 16 22 20 15 7 11 28 40 38 38 37 35 35 35 35 36 36 37 37 37 37 37 36 35 36 36 38 39 38 34 30 26 24 23 24 27 30 33 37 39 40 40 40 42 44 46 47 47 47 47 47 48 49 50 50 50 50 50
4 5 6 6 6 7 10 10 9 10 4 6 8 8 11 17 17 8 6 3 7 11 12 9 8 11 12 11 14 15 12 9 7 11 27 37 37 35 35 35 35 34 35 36 36 38 38 37 38 38 36 35 36 35 35 37 37 36 33 30 28 26 25 25 26 28 31 34 36 38 39 40 43 45 46 46 45 46 46 47 48 49 49 49 49 48
6 4 3 6 7 8 10 10 8 5 1 6 8 8 14 20 13 3 5 3 8 9 9 9 9 10 10 10 10 7 5 6 9 18 31 35 32 30 31 32 33 34 36 38 39 40 40 40 39 39 38 38 37 36 35 34 35 35 34 31 30 29 28 26 26 26 26 28 31 33 36 38 41 43 44 44 44 45 45 46 47 47 47 47 47 47
3 2 3 6 7 8 10 10 7 3 3 4 8 11 19 18 6 1 5 8 9 9 9 9 11 12 10 9 8 5 8 13 18 26 31 29 27 29 29 29 32 33 34 38 40 41 42 43 42 40 39 39 38 37 35 34 33 32 32 32 31 30 30 30 29 27 25 25 26 28 30 34 37 39 40 42 43 43 44 45 45 46 46 46 46 46
2 2 3 4 4 5 5 6 8 6 1 9 15 15 16 9 0 3 10 12 12 15 14 13 14 13 12 11 10 12 16 18 19 22 24 24 27 31 32 32 34 35 36 38 38 38 41 43 43 43 42 41 41 38 36 35 33 31 31 31 31 31 31 31 32 30 26 24 24 25 25 28 31 34 36 38 40 42 43 43 44 45 45 45 45 46
2 4 4 4 4 5 5 6 8 7 5 16 18 12 7 2 5 11 14 14 16 17 17 17 16 13 13 14 15 16 16 15 15 17 21 26 30 32 34 35 36 38 39 39 39 38 38 39 41 42 42 41 42 40 38 37 36 34 32 30 29 29 29 30 30 31 30 28 25 24 24 24 26 29 32 34 37 39 41 42 43 45 45 45 45 46
2 3 5 4 3 3 5 5 4 4 10 18 14 5 3 7 15 19 16 14 15 15 15 18 17 14 14 15 16 15 14 15 17 19 22 26 28 30 33 35 35 36 36 36 36 36 37 37 39 39 39 39 40 40 39 38 38 38 36 32 29 27 27 27 28 30 32 32 29 27 25 24 24 26 28 32 35 37 40 42 43 44 45 45 45 46
4 5 6 5 3 3 5 7 9 10 14 19 17 13 14 20 26 27 21 17 18 18 16 16 15 14 14 14 14 15 16 18 21 23 25 27 27 28 29 31 32 33 33 34 35 35 34 36 38 39 40 40 38 38 38 37 37 39 39 35 32 30 27 26 26 27 30 32 32 29 27 25 24 24 25 28 32 36 39 42 43 45 45 45 46 46
6 9 8 4 4 5 7 11 13 12 14 22 25 25 25 29 32 29 22 18 19 19 18 17 16 17 18 17 16 18 20 22 24 26 26 27 28 29 30 30 32 32 32 34 35 35 35 36 38 40 42 43 42 39 38 38 38 39 39 36 34 33 32 29 28 27 29 31 32 31 29 27 27 26 25 26 29 33 38 41 43 44 45 46 47 47
7 11 9 4 4 7 7 9 10 12 17 25 28 29 31 33 31 25 20 20 20 19 18 19 20 21 21 21 21 23 25 27 28 29 29 28 29 31 32 32 32 32 34 35 36 37 37 38 39 41 43 45 45 42 40 40 40 40 39 35 32 33 33 33 32 30 30 32 33 33 31 30 30 29 29 28 28 31 36 40 43 44 46 47 47 48
6 6 5 5 7 8 8 10 15 21 27 31 31 30 31 31 26 21 21 22 20 18 19 21 22 22 22 24 26 27 29 31 31 30 30 31 31 33 34 34 34 35 36 37 37 38 39 40 41 42 43 45 46 44 43 43 43 42 40 37 34 32 33 34 34 33 33 33 35 36 34 33 33 33 33 32 32 33 35 38 41 43 45 46 47 48
6 4 4 6 6 7 9 12 17 20 22 26 29 28 25 26 25 22 21 21 20 19 20 21 22 23 24 27 28 28 29 32 32 31 31 32 34 35 35 36 37 38 39 40 40 40 41 43 44 43 44 46 47 46 46 46 45 44 42 41 38 36 35 35 35 34 35 35 37 38 37 36 36 35 36 37 37 38 38 38 40 41 42 43 45 47
6 7 8 7 6 7 9 12 15 13 10 14 23 27 26 27 27 24 21 20 20 20 19 20 23 26 27 29 29 28 29 32 33 32 32 33 35 36 37 38 38 39 41 42 43 44 45 46 46 45 46 49 49 48 48 48 48 47 45 44 42 40 39 38 37 37 36 37 38 40 40 39 39 39 38 39 40 41 41 41 41 41 41 43 45 46
12 11 10 8 8 10 14 19 22 16 10 16 28 33 30 26 24 23 21 19 18 18 19 21 25 28 31 33 32 30 30 33 34 34 34 35 36 37 38 40 39 40 42 43 44 46 48 48 46 46 48 51 53 52 51 51 51 51 49 47 45 44 43 41 39 40 40 39 39 40 41 42 42 41 40 41 41 42 42 42 43 43 43 44 45 45
Wind_Direction
168 143 158 210 226 226 210 198 217 234 244 260 261 257 256 261 266 254 264 266 208 226 239 234 249 251 252 255 255 260 263 264 265 267 265 261 260 261 262 263 263 262 266 270 270 268 266 264 264 263 261 258 256 253 250 249 249 249 247 244 242 239 237 235 234 232 229 227 226 226 227 227 227 227 228 229 230 230 230 231 232 233 233 233 234 234
164 171 214 223 226 225 214 209 225 242 253 260 252 263 265 257 266 257 264 275 227 200 251 243 256 259 251 254 257 259 262 260 258 259 262 260 257 259 260 261 263 264 267 270 270 268 267 265 264 263 261 258 256 253 250 249 248 247 246 244 242 239 237 235 235 234 232 231 231 231 231 230 228 229 230 231 231 231 231 231 232 233 233 233 234 234
176 207 229 228 228 237 246 217 221 236 235 243 242 263 271 255 272 267 253 270 251 176 259 254 256 261 254 253 256 258 255 256 258 257 259 261 257 257 259 261 263 264 265 268 270 270 267 266 264 261 260 259 259 256 253 251 247 245 244 243 241 239 238 236 235 235 235 235 235 235 235 233 231 231 233 233 234 233 232 232 232 232 232 233 234 234
200 227 234 232 220 226 254 240 227 256 234 218 226 247 263 252 266 269 242 269 277 192 261 269 264 263 260 259 251 252 254 256 261 260 260 261 257 256 259 260 263 264 265 267 270 271 268 266 263 260 259 259 257 254 250 247 244 243 242 241 239 238 238 236 235 236 236 235 234 233 234 234 234 234 234 234 234 234 233 233 232 232 232 232 233 233
228 238 234 218 196 207 238 245 235 264 250 214 212 225 249 249 249 257 269 304 309 273 277 290 284 270 231 244 247 246 252 255 258 259 260 259 256 257 260 260 260 262 264 265 267 269 268 266 265 263 261 258 254 252 250 247 243 242 242 241 239 238 237 236 235 235 233 232 231 230 230 230 231 232 233 233 233 233 232 232 232 233 232 232 233 233
245 247 226 178 196 208 217 237 222 230 251 243 214 221 238 246 250 259 282 319 323 295 309 3 304 289 192 213 238 240 246 250 251 252 253 255 255 253 255 259 261 261 262 264 266 267 266 266 266 264 261 257 253 252 251 248 244 243 242 241 239 237 237 236 234 233 232 232 232 231 230 229 229 229 230 231 232 232 232 232 232 232 232 232 232 232
241 237 212 183 202 200 196 240 225 210 242 272 227 219 232 241 250 256 271 299 267 260 288 94 296 286 259 206 222 227 234 244 248 249 249 252 253 249 248 255 261 263 264 264 266 268 267 266 264 261 259 257 256 254 250 245 242 241 241 240 238 237 236 235 233 233 233 233 233 234 235 235 234 234 235 235 234 235 235 235 234 233 232 232 232 232
205 215 205 194 198 180 185 238 227 187 210 263 223 190 207 223 232 226 218 231 237 280 295 167 149 273 283 242 198 210 219 236 248 250 252 251 252 251 249 253 259 263 267 267 268 270 270 268 264 262 262 260 258 254 247 242 239 239 240 239 238 237 236 235 234 233 234 234 235 235 236 237 238 240 241 240 238 238 237 237 236 235 234 233 232 232
174 197 204 188 181 187 207 227 199 156 192 251 177 145 163 189 200 169 169 219 287 346 298 229 144 264 284 268 168 197 207 223 241 241 247 250 252 255 255 257 260 264 268 269 269 270 270 268 266 265 265 262 255 249 245 243 241 240 239 238 236 236 236 235 235 234 235 236 236 237 237 238 239 240 241 242 241 240 239 238 237 236 235 234 233 232
201 194 191 170 173 214 221 226 167 159 203 230 115 94 71 72 70 85 101 87 12 310 257 211 164 229 282 294 109 148 194 216 234 236 245 253 256 260 261 262 265 267 270 267 265 267 268 268 268 265 264 258 249 244 243 242 240 239 239 238 237 236 236 236 235 235 235 236 236 237 238 239 240 240 239 240 240 240 240 239 238 237 235 234 233 233
252 68 112 179 195 207 190 141 138 167 185 124 97 58 34 22 25 51 33 65 25 281 242 195 185 189 266 294 127 170 206 210 220 231 250 258 256 257 262 266 266 268 272 269 265 265 266 267 266 261 257 252 244 240 238 237 238 238 238 238 237 237 236 236 236 236 236 236 236 237 238 239 240 240 240 240 239 240 239 239 239 238 237 235 235 234
259 204 218 212 193 159 107 100 44 58 109 114 102 75 31 334 6 29 353 53 182 265 239 192 188 187 233 262 189 229 254 212 199 216 237 247 250 250 256 263 265 268 273 271 268 267 264 264 263 259 254 245 237 233 233 234 235 236 237 237 237 236 235 235 235 235 236 236 236 237 238 238 239 240 241 241 241 241 241 240 239 238 237 236 235 234
275 223 213 194 187 171 137 120 347 0 66 110 115 120 94 302 339 354 311 61 219 257 244 186 183 212 243 249 234 255 266 239 208 211 223 233 245 248 253 261 265 268 270 271 273 272 265 261 260 258 253 244 234 229 230 232 232 234 236 236 236 235 233 233 234 234 235 236 236 236 236 237 238 239 241 243 243 243 243 243 241 240 239 237 235 234
294 265 188 128 249 196 165 167 225 267 175 158 153 153 170 214 223 254 262 264 257 263 265 178 169 254 277 269 231 239 255 256 238 227 229 234 243 249 255 264 266 267 269 274 277 274 267 264 261 257 253 246 236 229 228 230 232 233 235 236 236 234 232 231 232 233 233 235 236 237 237 237 237 237 238 241 243 244 244 244 244 243 243 241 239 238
259 286 191 160 222 181 176 204 204 163 162 189 164 147 179 188 184 209 224 247 260 273 295 200 174 237 274 278 226 229 260 287 273 253 250 256 258 258 261 266 267 267 268 273 277 277 274 271 265 259 253 248 240 232 230 230 231 233 234 235 235 233 231 229 229 231 232 233 236 238 239 238 237 237 238 240 242 243 244 245 245 245 245 244 243 242
225 270 228 190 176 159 182 215 193 127 129 227 122 120 219 200 182 224 242 238 244 286 281 229 213 237 252 272 259 246 265 276 274 269 267 264 260 258 259 260 263 265 264 268 278 289 289 280 270 261 254 249 241 234 233 232 232 234 234 233 234 233 231 229 229 230 231 233 235 238 238 238 238 237 238 239 240 240 243 245 246 246 246 246 245 243
237 273 251 214 235 177 192 220 181 159 201 196 125 187 224 160 161 224 268 279 143 257 259 249 254 271 302 286 269 232 252 261 272 267 253 256 262 264 262 261 264 266 266 270 280 290 291 285 273 260 253 251 244 238 238 238 237 238 236 234 234 233 233 232 232 231 232 234 236 237 237 238 238 237 236 237 239 239 240 242 245 246 246 246 245 244
241 270 256 194 228 263 359 13 343 253 147 130 178 214 172 68 132 173 243 309 243 246 253 258 264 271 281 278 311 29 321 290 285 280 282 295 296 293 285 281 279 277 277 278 278 282 288 289 280 262 251 250 247 244 245 244 243 242 240 238 236 234 235 236 236 234 233 235 236 236 237 237 237 237 237 237 239 240 240 240 242 244 246 246 244 243
226 257 268 198 196 319 23 24 313 326 70 141 219 243 101 160 241 166 181 214 228 243 246 242 258 266 249 249 276 309 291 284 288 308 334 315 302 301 301 302 300 297 295 290 283 284 289 289 281 265 254 249 245 244 245 245 244 243 242 241 240 240 240 241 240 237 235 236 237 237 237 237 238 238 239 239 239 240 240 240 240 241 244 245 243 242
224 241 267 332 71 320 35 117 210 257 300 28 307 322 70 188 204 183 189 181 217 243 250 236 245 260 252 237 231 243 241 233 262 326 327 305 309 310 307 306 305 305 303 300 297 297 297 293 284 269 256 250 245 244 244 244 244 245 244 242 242 244 244 243 243 242 240 240 239 239 238 238 238 239 240 240 240 240 240 240 241 241 242 242 242 241
7 256 257 309 355 263 208 197 191 200 217 196 235 250 248 231 220 244 237 176 220 245 251 248 242 248 258 230 200 216 214 203 234 320 307 297 300 298 296 293 293 294 293 295 299 298 294 290 286 276 261 252 246 245 246 245 245 246 245 243 244 247 247 246 246 244 244 244 242 241 240 239 239 238 240 241 241 241 240 240 241 241 241 241 241 241
167 246 255 289 274 246 245 221 185 191 206 196 208 223 228 229 240 267 253 218 217 247 250 259 256 252 302 299 262 244 236 243 266 287 280 280 280 280 282 281 282 284 284 286 288 285 282 280 281 280 266 252 244 244 247 246 245 247 248 250 251 251 250 250 251 248 246 246 245 244 243 242 240 240 239 240 241 242 241 241 241 241 241 241 240 240
168 162 242 251 241 246 269 270 211 202 217 218 222 221 231 232 221 239 249 236 233 260 273 276 267 256 297 289 283 283 280 279 280 269 267 274 272 271 273 274 276 276 276 280 283 284 285 283 281 278 264 254 249 249 250 248 248 252 257 261 263 262 259 255 255 254 249 247 247 247 246 244 242 241 241 240 241 242 242 242 242 241 242 242 241 239
145 116 215 248 263 262 273 284 271 209 175 230 242 217 219 231 226 234 246 241 241 251 261 265 259 243 221 262 277 284 286 286 282 272 269 272 273 273 272 272 273 272 273 278 280 283 289 290 286 278 266 262 261 258 254 252 254 260 266 268 270 273 270 260 256 256 252 248 248 248 247 244 242 242 242 242 242 243 244 243 243 242 242 242 241 240
194 188 198 232 268 266 260 280 276 230 191 224 227 210 223 230 237 252 263 240 244 238 236 250 256 241 234 256 274 282 284 285 283 280 277 274 274 274 271 270 272 272 274 276 277 279 284 289 288 283 277 276 276 272 266 259 259 266 273 276 277 280 278 266 256 255 257 253 249 247 246 246 244 243 244 245 244 243 244 244 243 243 242 241 241 240
203 212 183 217 244 249 251 251 243 223 218 226 198 205 222 221 225 242 249 243 247 238 231 243 254 249 245 255 262 266 273 279 284 285 282 279 277 276 273 271 272 274 274 274 275 277 281 284 287 287 286 284 282 282 279 274 273 278 280 281 283 283 281 271 258 254 260 258 252 247 246 247 246 246 248 249 247 245 244 244 243 243 243 242 241 240
194 213 205 228 238 243 254 254 247 234 225 232 227 221 225 225 226 234 242 244 249 251 245 240 248 256 250 246 254 259 264 271 276 281 283 286 285 280 278 276 274 273 273 273 275 277 278 279 282 286 289 291 290 288 287 286 287 287 285 286 286 283 279 272 260 255 260 261 255 249 246 247 248 250 252 253 250 246 243 243 244 244 244 243 241 240
246 236 222 235 241 243 252 256 256 255 246 244 242 237 237 238 235 237 243 246 247 255 254 237 235 248 245 240 252 260 263 265 267 272 280 285 284 283 283 281 276 274 274 275 277 278 279 279 279 280 283 286 290 290 288 288 288 286 282 280 281 279 276 270 261 259 262 262 257 252 247 247 249 251 252 253 251 246 243 243 244 244 244 242 241 240
222 245 235 241 246 245 248 251 252 254 254 252 248 246 247 245 243 243 245 246 241 246 256 248 239 247 252 249 251 254 259 262 264 269 274 279 283 285 284 282 281 285 286 285 284 283 283 283 281 281 280 281 282 283 282 280 279 278 276 274 274 275 274 270 263 262 264 262 259 255 250 248 249 249 250 250 249 247 244 244 244 244 243 242 240 240
238 244 242 245 250 248 245 246 247 248 253 255 250 247 246 245 246 246 247 250 247 249 260 262 258 260 262 260 256 254 258 262 265 270 274 278 281 282 285 289 300 314 318 315 309 303 297 291 287 284 281 279 278 279 280 277 272 270 271 272 273 273 272 269 266 265 265 263 261 258 253 249 247 247 248 248 248 247 245 243 243 242 242 241 240 238
255 249 252 254 256 250 245 247 247 244 247 250 249 248 247 247 247 247 250 253 253 256 258 258 261 262 259 259 260 257 259 262 266 270 272 274 277 283 296 318 345 357 356 352 346 340 333 321 308 298 291 287 285 285 283 280 275 271 272 272 273 275 274 271 268 266 265 265 264 259 253 248 246 247 248 247 247 245 243 242 241 241 241 240 238 237
282 277 275 274 270 257 247 248 249 249 247 247 248 247 246 245 244 243 244 244 246 253 255 255 258 260 259 262 262 263 266 266 268 273 275 280 295 321 347 6 13 9 2 359 358 358 355 351 343 328 312 301 296 294 290 285 280 276 276 276 276 277 277 273 270 267 267 267 264 257 252 248 246 247 247 246 245 244 242 241 240 240 240 239 238 237
251 269 272 273 272 266 259 257 260 262 253 246 245 243 243 246 246 247 247 245 244 247 252 255 259 279 312 328 330 319 313 304 296 301 316 339 359 9 10 7 2 357 355 351 349 350 350 351 352 347 336 319 302 293 291 290 286 283 282 281 280 279 277 274 273 271 269 267 262 256 252 249 247 247 247 246 245 244 242 240 240 240 240 239 238 236
256 264 266 269 272 278 286 289 287 274 258 251 237 234 243 247 248 250 251 250 250 253 267 293 335 11 17 24 14 351 340 324 315 345 44 35 19 5 355 352 350 347 346 344 343 344 345 346 347 347 347 343 327 306 294 289 288 287 286 284 282 280 277 275 274 272 269 266 261 257 253 249 247 247 247 246 245 243 241 240 240 239 239 238 236 234
258 261 262 263 267 274 282 284 276 264 261 268 226 226 249 249 250 256 258 263 282 321 12 15 17 23 26 19 2 352 339 325 319 16 55 28 12 2 349 343 342 341 340 341 341 342 344 345 346 345 345 348 346 339 326 310 299 292 288 285 284 282 279 278 276 273 270 266 262 257 253 251 249 248 247 245 243 241 240 240 239 238 237 236 235 235
245 255 260 259 258 268 268 257 259 264 274 284 291 344 335 312 300 288 273 298 4 18 25 14 4 17 23 11 360 353 342 333 325 43 30 5 359 356 345 339 338 337 337 339 339 341 343 344 345 345 345 345 346 348 347 342 332 316 301 293 288 285 283 281 278 275 272 267 263 259 256 254 251 249 246 244 242 240 239 239 238 237 236 235 234 233
233 243 252 250 240 248 258 253 260 273 272 265 319 357 357 342 325 309 280 30 29 8 354 354 2 17 17 4 355 349 343 341 333 330 349 349 347 346 342 338 336 334 335 339 340 342 345 346 346 347 347 346 348 350 349 347 346 340 330 319 310 302 294 287 283 280 276 271 267 264 261 258 253 250 246 243 241 240 240 239 237 236 235 233 232 232
235 234 242 254 242 253 271 269 276 277 270 321 338 320 337 327 308 293 250 159 40 6 343 349 8 10 4 353 352 350 344 344 337 321 334 338 338 338 338 336 337 337 338 342 345 346 348 349 348 347 347 346 347 350 349 346 345 346 346 345 341 334 322 310 301 293 283 276 271 266 263 259 255 250 246 244 244 243 241 239 237 236 235 234 234 234
320 254 244 261 257 262 270 268 273 269 261 30 342 313 335 328 314 297 227 177 47 6 340 353 1 352 353 343 341 349 347 340 329 316 325 329 330 332 333 334 337 339 340 343 345 344 344 345 344 343 345 345 344 345 346 345 344 343 344 347 349 345 340 331 320 307 294 283 275 268 263 259 254 250 248 247 247 245 242 240 238 236 235 235 234 235
334 305 276 272 269 277 276 269 276 268 110 26 337 322 332 322 314 302 239 277 15 352 333 353 337 319 329 323 320 344 350 314 299 303 315 322 325 328 331 333 335 337 338 339 339 338 338 339 339 339 340 341 340 339 339 339 340 339 339 341 346 348 344 337 328 319 309 299 289 278 270 263 256 252 250 249 247 244 241 240 238 237 236 234 233 233
313 299 278 266 267 281 277 276 289 254 149 26 346 341 338 329 331 82 282 307 338 316 302 319 307 297 300 290 285 294 286 284 289 298 310 320 323 326 329 330 331 332 332 333 335 336 335 335 335 335 335 335 335 335 335 334 333 334 334 334 339 342 340 337 334 328 319 312 306 297 284 273 263 256 252 249 247 244 242 240 239 238 237 235 233 233
285 258 262 255 267 283 268 274 287 257 153 14 356 348 349 352 109 285 302 304 298 287 288 297 293 292 291 279 280 289 290 294 300 304 313 321 321 323 325 326 327 327 328 329 331 332 333 332 332 331 330 330 330 331 333 332 328 327 328 328 332 335 335 334 333 330 323 317 315 311 302 287 273 264 257 253 250 247 244 243 241 240 238 235 234 232
273 280 282 251 250 272 258 261 268 254 335 355 348 346 12 63 246 283 295 289 279 277 287 296 297 301 299 292 295 298 296 302 308 309 314 317 319 322 322 323 324 324 325 327 328 329 331 330 329 328 327 327 327 327 328 328 325 323 322 323 326 329 330 330 330 327 324 319 315 312 309 299 284 272 263 258 254 251 247 245 244 241 238 235 233 231
255 258 266 255 254 267 247 250 265 280 320 329 326 304 279 289 292 296 294 281 272 272 282 290 294 300 301 299 301 301 300 303 306 308 312 313 316 318 318 318 320 320 321 323 324 327 329 327 325 325 324 324 326 326 325 324 321 318 316 318 320 320 322 325 325 322 320 318 314 311 308 302 293 284 274 266 260 255 250 247 245 241 238 235 232 230
223 223 243 254 260 245 232 257 280 291 296 299 295 282 286 298 303 300 289 275 274 282 289 289 291 298 302 299 298 298 300 304 307 310 311 311 312 313 313 315 316 317 319 320 322 324 325 323 322 321 320 321 323 324 324 322 318 314 311 313 316 315 315 317 317 316 314 312 310 309 306 301 293 286 281 275 267 260 254 250 245 241 237 235 232 230
252 255 262 261 252 256 255 259 269 279 282 283 286 288 291 298 300 295 285 276 279 287 293 293 296 303 304 302 302 302 304 307 309 309 310 311 312 312 312 313 314 316 317 317 319 321 320 318 318 317 317 318 320 321 321 318 315 312 309 310 312 311 311 309 307 307 307 306 305 302 300 298 292 282 276 272 268 263 257 252 248 243 240 236 233 232
254 247 247 250 257 264 263 256 260 273 277 279 285 289 292 294 293 288 285 286 285 284 287 291 295 298 298 299 303 307 309 311 310 310 310 310 310 310 311 312 313 314 315 315 316 316 315 315 315 315 316 316 316 318 317 314 311 309 308 309 309 308 307 305 302 301 301 302 302 296 290 289 288 281 272 265 263 262 257 251 247 244 241 239 236 232
254 233 214 228 242 244 253 267 273 274 276 279 283 285 288 290 287 282 286 290 284 279 282 286 289 290 293 297 303 308 310 310 308 308 308 308 308 308 308 309 309 310 311 312 312 313 313 313 313 313 313 313 314 315 313 311 309 308 308 308 307 305 303 300 297 296 295 295 297 293 286 283 281 277 271 264 260 259 257 252 247 245 244 243 241 237
258 261 229 233 247 255 265 274 277 277 278 279 280 281 285 289 289 288 289 286 279 279 283 284 284 287 291 296 302 305 305 304 305 305 305 304 305 306 305 306 307 308 309 310 310 311 311 311 311 311 311 310 311 311 310 308 307 307 307 307 306 303 301 297 295 293 291 289 290 289 284 279 276 274 270 264 258 256 255 252 250 250 250 248 245 244
237 254 250 246 255 259 256 259 264 270 276 277 282 288 291 292 291 290 288 287 286 288 290 288 289 292 295 298 303 303 300 300 303 304 303 302 303 303 303 304 304 305 306 308 308 309 309 309 309 308 308 308 309 308 306 305 305 304 305 305 304 301 297 295 293 291 287 285 285 285 282 277 274 270 266 261 257 253 249 247 246 247 247 246 244 242
230 238 243 245 252 253 255 258 260 260 265 275 282 287 291 291 292 289 287 290 292 294 296 298 299 301 302 303 304 303 300 301 304 304 303 302 302 301 302 302 302 302 303 304 303 304 305 306 306 306 305 306 306 304 302 301 300 301 302 302 301 298 295 292 290 288 285 282 281 281 281 278 273 269 264 260 256 252 248 245 245 244 242 242 241 239